Weather History for KCTY - July, 2013

Change the Weather History Date:

Sunday, July 7, 2013

  Actual Average Record
Temperature  
Mean Temperature 83 °F 81 °F  
Max Temperature 92 °F 91 °F 98 °F (2000)
Min Temperature 74 °F 71 °F 68 °F (2001)
Degree Days  
Heating Degree Days 0 0  
Month to date heating degree days 0 0  
Since 1 June heating degree days 0 0  
Since 1 July heating degree days 0 0  
Cooling Degree Days 18 16  
Month to date cooling degree days 105 112  
Year to date cooling degree days 1083 1038  
Since 1 June cooling degree days 548 559  
Growing Degree Days 32 (Base 50)    
Moisture  
Dew Point 74 °F    
Average Humidity 81    
Maximum Humidity 100    
Minimum Humidity 52    
Precipitation  
Precipitation 0.12 in 0.15 in 1.01 in (1998)
Month to date precipitation 8.99 1.14  
Year to date precipitation 30.87 23.40  
Sea Level Pressure  
Sea Level Pressure 30.10 in    
Wind  
Wind Speed 3 mph (SSE)    
Max Wind Speed 12 mph    
Max Gust Speed 14 mph    
T = Trace of Precipitation, MM = Missing Value Source: NWS Daily Summary

Daily Weather History Graph

Daily Weather History Graph

Search for Another Location

Airport or City:

Trip Planner

Search our weather history database for the weather conditions in past years. The results will help you decide how hot, cold, wet, or windy it might be!

Date:

Astronomy

Jul. 07, 2013 Rise Set
Actual Time 6:38 AM EDT 8:36 PM EDT
Civil Twilight 6:11 AM EDT 9:03 PM EDT
Nautical Twilight 5:38 AM EDT 9:35 PM EDT
Astronomical Twilight 5:03 AM EDT 10:10 PM EDT
Moon 6:09 AM EDT (7/7) 8:05 PM EDT (7/7)
Length of Visible Light 14h 51m
Length of Day
13h 57m
Waning Crescent, 0% of the Moon is Illuminated
Jul 7
Waning Crescent
Jul 8
New
Jul 15
First Quarter
Jul 22
Full
Jul 29
Last Quarter

Hourly Weather History & Observations

Time (EDT) Temp. Heat Index Dew Point Humidity Pressure Visibility Wind Dir Wind Speed Gust Speed Precip Events Conditions
12:53 AM 75.9 °F - 73.9 °F 94% 30.12 in - Calm Calm - N/A   Unknown
1:53 AM 75.0 °F - 73.9 °F 96% 30.12 in - Calm Calm - 0.01 in   Unknown
2:53 AM 73.9 °F - 73.0 °F 97% 30.10 in - Calm Calm - 0.01 in   Unknown
3:53 AM 75.0 °F - 73.0 °F 94% 30.09 in - Calm Calm - N/A   Unknown
4:53 AM 73.9 °F - 73.0 °F 97% 30.09 in - Calm Calm - 0.01 in   Unknown
5:53 AM 73.9 °F - 73.0 °F 97% 30.09 in - Calm Calm - 0.01 in   Unknown
6:53 AM 73.9 °F - 73.0 °F 97% 30.10 in - Calm Calm - 0.02 in   Unknown
7:53 AM 75.0 °F - 73.0 °F 94% 30.10 in - Calm Calm - N/A   Unknown
8:53 AM 78.1 °F - 75.0 °F 90% 30.12 in - SE 3.5 mph - N/A   Unknown
9:53 AM 81.0 °F 86.2 °F 73.9 °F 79% 30.14 in - Variable 3.5 mph - N/A   Unknown
10:53 AM 84.0 °F 91.9 °F 75.0 °F 74% 30.14 in - SE 6.9 mph - N/A   Unknown
11:53 AM 86.0 °F 93.8 °F 73.9 °F 67% 30.14 in - ESE 4.6 mph - N/A   Unknown
12:53 PM 88.0 °F 96.5 °F 73.9 °F 63% 30.12 in - Variable 5.8 mph - N/A   Unknown
1:53 PM 90.0 °F 97.9 °F 73.0 °F 57% 30.11 in - ESE 5.8 mph - 0.01 in   Unknown
2:53 PM 87.1 °F 93.6 °F 72.0 °F 61% 30.09 in - Variable 5.8 mph - N/A   Unknown
3:53 PM 91.0 °F 97.6 °F 71.1 °F 52% 30.07 in - East 8.1 mph - N/A   Unknown
4:53 PM 88.0 °F 94.7 °F 72.0 °F 59% 30.06 in - WSW 4.6 mph - N/A   Unknown
5:53 PM 84.9 °F 93.3 °F 75.0 °F 72% 30.06 in - West 8.1 mph - N/A   Unknown
6:53 PM 84.9 °F 92.1 °F 73.9 °F 69% 30.05 in - NW 5.8 mph - N/A   Unknown
7:53 PM 80.1 °F 85.4 °F 75.9 °F 87% 30.08 in - Calm Calm - 0.04 in   Unknown
8:53 PM 79.0 °F - 75.0 °F 88% 30.12 in - SW 4.6 mph - N/A   Unknown
9:53 PM 78.1 °F - 75.0 °F 90% 30.13 in - Calm Calm - N/A   Unknown
10:53 PM 75.9 °F - 73.9 °F 94% 30.15 in - NNW 3.5 mph - 0.01 in   Unknown
11:53 PM 75.0 °F - 73.0 °F 94% 30.14 in - Calm Calm - N/A   Unknown